ECMWFNIL_sfc_dewp_000.txt.gz
Dewpoint
22 21 21 20 20 21 20 21 22 21 22 22 22 22 23 23 24 23 23 22 23 22 22 22 22 22 23 23 23 22 22 22 22 22 22 22 22 22 22 22 21 22
22 21 22 21 21 21 20 21 21 21 21 22 22 22 22 23 23 23 23 22 22 22 22 22 22 22 22 22 22 22 22 22 22 24 22 22 22 22 22 22 22 21
22 21 21 20 19 19 19 20 20 20 20 21 21 21 22 23 23 23 23 22 22 21 22 22 22 22 22 22 22 22 22 22 22 23 23 22 22 22 22 22 22 21
22 21 20 20 20 19 19 19 20 20 20 20 20 21 22 23 23 23 22 23 21 21 21 21 21 21 21 21 22 22 22 22 22 23 23 23 23 22 22 22 23 22
21 21 21 20 20 20 19 19 19 20 20 20 19 20 22 22 22 22 22 22 21 21 21 21 21 21 21 22 22 21 22 22 23 22 22 22 22 22 22 22 21 21
21 21 21 20 20 19 19 19 19 19 20 19 19 20 21 22 22 22 21 21 21 21 20 21 21 21 21 21 22 21 22 22 22 22 22 21 22 22 23 22 21 21
20 19 19 19 19 19 19 18 19 20 19 19 19 19 20 21 21 21 21 21 20 21 20 20 20 21 21 21 21 21 22 21 21 21 21 21 21 21 21 21 21 20
19 19 19 19 18 18 19 18 19 19 19 19 19 19 20 20 20 20 20 20 20 20 20 20 20 20 21 21 21 21 21 21 21 21 20 20 20 19 19 18 18 17
19 19 18 18 18 18 18 18 18 19 19 19 18 19 20 20 20 20 20 19 19 19 19 19 20 20 21 21 21 20 20 20 20 20 19 18 18 17 17 16 16 16
19 19 18 18 18 18 18 18 18 18 20 18 18 19 19 19 19 19 19 19 19 19 19 19 20 20 20 20 20 20 20 20 19 19 18 18 17 17 16 15 15 15
20 19 19 18 18 18 18 18 18 18 19 18 18 18 19 19 19 19 19 18 18 19 19 19 20 20 20 20 20 19 19 19 18 18 17 17 17 16 18 15 15 14
20 19 19 18 18 18 18 18 17 18 18 18 18 18 19 19 19 19 19 18 18 18 19 19 19 19 19 19 19 19 19 18 17 17 16 16 15 15 16 15 15 14
20 19 19 19 19 18 18 18 17 17 18 18 18 18 18 18 18 18 19 18 18 18 18 19 19 19 19 19 18 18 18 17 16 16 15 15 14 14 14 14 14 14
20 20 19 19 18 18 18 17 17 18 18 18 18 18 18 18 18 18 18 18 18 18 18 19 19 18 18 18 17 17 17 16 16 15 15 14 14 14 14 14 13 13
20 20 19 19 19 18 18 18 18 18 19 18 18 18 18 18 18 18 18 17 17 18 18 18 18 18 18 17 16 15 16 15 15 14 14 13 13 13 12 12 12 12
20 20 19 19 19 18 18 18 18 18 19 19 19 18 18 18 17 17 17 17 17 17 17 17 17 16 19 23 21 16 15 14 14 14 13 12 12 11 11 11 11 11
20 20 19 19 19 19 20 19 19 20 20 19 19 19 18 17 17 17 16 16 16 16 16 16 15 16 24 26 25 23 16 14 14 13 12 11 11 10 10 11 11 11
21 20 20 20 20 21 20 20 20 19 19 19 18 18 17 17 16 16 16 15 15 15 15 14 14 21 26 26 26 25 20 14 14 13 13 10 10 10 12 13 13 13
21 21 21 20 20 20 20 19 19 19 19 18 17 17 16 16 17 15 15 15 14 14 14 14 13 22 27 27 26 25 23 17 13 14 13 12 11 12 13 14 14 15
21 22 21 20 20 19 19 19 18 18 18 18 17 17 17 16 16 15 15 15 13 13 13 13 12 22 26 26 26 26 24 18 13 13 14 15 13 14 14 15 15 15
21 21 20 20 19 19 18 18 18 18 18 18 17 17 17 16 15 15 15 15 14 13 13 12 11 22 25 27 27 27 25 19 14 15 16 16 15 15 16 16 16 15
21 21 20 19 19 18 18 18 18 18 18 17 16 16 16 16 15 15 14 14 13 13 12 11 10 23 26 26 26 26 28 19 18 18 18 18 18 17 16 15 13 13
21 20 19 19 18 18 17 17 17 17 17 16 15 15 15 14 14 14 14 13 12 12 11 11 11 22 26 25 25 25 25 20 19 19 19 18 17 15 14 13 13 13
20 20 19 18 17 17 17 17 17 17 16 15 15 14 14 13 13 12 12 12 12 11 11 10 11 21 25 24 24 26 24 20 19 18 17 16 16 15 14 14 13 17
19 19 19 17 17 17 16 16 16 16 15 14 14 14 13 12 11 11 10 11 11 10 14 11 11 19 25 24 23 25 23 19 18 17 16 16 16 15 14 14 13 16
19 19 18 17 16 16 16 16 15 13 12 12 12 12 11 10 10 10 9 9 10 9 12 10 11 16 20 24 23 24 25 18 17 16 15 15 15 15 14 15 15 14

ECMWFNIL_sfc_dewp_003.txt.gz
Dewpoint
24 24 24 23 23 23 22 23 24 24 24 24 24 25 25 25 25 25 24 24 23 22 22 23 23 23 23 23 23 22 22 21 22 22 22 22 22 22 21 21 21 21
24 24 24 23 24 24 22 22 23 23 23 24 24 24 25 25 25 25 24 23 23 22 22 22 23 22 22 22 22 21 21 21 21 22 21 21 21 21 21 21 21 22
24 24 23 22 22 22 22 22 22 22 23 23 23 24 24 25 24 24 24 23 23 22 22 22 22 22 22 22 22 21 21 21 21 22 22 21 21 21 21 22 22 22
24 23 23 22 22 21 21 21 21 22 22 23 22 23 24 24 24 23 23 24 22 21 21 21 21 21 21 21 21 21 21 21 21 22 21 22 22 22 22 22 22 22
23 23 22 22 22 22 21 20 20 21 21 21 22 22 23 23 23 23 22 22 21 21 20 21 20 20 21 21 21 20 21 21 22 22 21 21 22 22 22 22 22 21
22 22 22 21 21 21 20 19 19 20 20 20 21 22 21 22 22 22 22 21 21 20 20 20 20 20 20 20 20 19 21 21 22 22 21 21 22 22 22 22 22 21
22 22 22 21 21 20 19 19 18 20 19 19 20 21 21 21 21 21 21 21 20 20 20 20 19 19 20 20 20 19 21 21 22 22 21 21 22 22 22 22 21 21
21 21 21 21 20 20 20 19 18 18 18 19 19 20 20 20 21 21 21 21 20 20 19 19 19 19 19 19 19 19 20 21 21 21 21 21 21 21 21 21 21 20
20 21 21 21 20 20 19 19 18 18 19 18 18 19 20 20 20 20 21 20 20 19 19 19 19 19 19 19 19 19 20 20 21 21 20 20 20 20 20 20 19 19
19 20 20 20 20 20 19 19 18 18 19 18 18 18 19 20 20 20 20 20 20 19 19 18 18 18 19 19 19 19 19 20 20 20 20 20 20 19 19 19 19 18
19 19 19 19 20 20 19 19 18 18 18 18 18 18 18 19 20 20 20 20 19 19 19 18 18 18 18 19 19 19 19 19 20 20 19 19 19 19 21 18 18 17
19 19 19 19 19 19 19 19 19 18 18 18 18 18 18 19 19 19 20 19 19 19 18 18 18 18 18 18 18 19 19 19 19 19 19 18 18 18 18 17 17 16
18 19 19 19 19 19 19 19 18 18 19 19 19 18 18 18 19 19 20 19 19 18 18 18 18 18 18 18 18 18 18 19 19 19 18 18 18 17 17 16 16 15
18 19 19 19 19 19 19 19 19 19 19 19 19 18 19 19 19 19 19 19 18 18 18 18 18 18 18 18 18 18 18 18 18 18 17 17 17 17 16 16 15 15
19 19 19 20 21 20 21 20 20 20 20 20 20 19 19 19 19 19 19 19 18 18 18 18 18 18 18 18 18 18 18 18 18 17 17 16 16 16 15 15 15 14
20 20 20 21 21 21 21 21 20 21 21 21 21 20 20 20 19 19 19 19 19 18 18 18 18 18 21 24 23 18 18 18 18 17 16 16 15 15 14 14 13 13
21 21 21 22 22 22 23 22 22 22 22 21 21 21 21 21 20 20 19 19 19 18 18 18 18 18 24 27 26 25 19 18 17 17 16 15 15 14 14 13 13 12
23 23 23 23 23 24 24 24 23 22 21 22 21 21 21 21 20 20 19 19 19 19 18 18 18 23 27 28 28 27 24 17 17 16 16 15 14 14 13 12 11 11
23 24 24 24 24 24 23 23 23 22 22 22 21 21 21 21 20 20 19 19 19 18 18 18 18 24 27 29 28 28 26 21 17 16 16 15 13 13 12 11 11 11
24 25 24 24 23 23 23 23 22 22 22 21 21 21 21 21 20 20 20 19 18 18 18 18 18 25 28 29 29 29 27 23 16 16 15 14 12 12 12 11 12 12
24 24 24 23 23 23 22 22 22 22 22 21 21 20 20 20 20 20 20 20 19 19 19 18 17 25 28 29 29 28 27 23 15 15 14 13 12 12 12 13 13 14
22 22 22 21 21 21 21 22 22 22 21 21 20 20 20 20 20 20 20 19 19 19 18 18 16 26 29 29 29 29 28 18 15 14 13 13 13 12 13 14 14 15
21 21 21 21 21 21 21 22 22 21 21 20 20 20 20 20 20 20 19 19 19 18 18 17 17 25 28 29 29 29 26 15 14 14 14 13 13 14 14 15 15 15
22 22 23 22 22 21 21 22 21 21 21 20 20 19 19 19 19 18 19 18 18 17 17 16 16 23 28 29 28 29 23 15 14 14 14 14 15 15 16 16 16 19
22 23 24 22 22 22 21 21 21 21 20 19 19 19 19 19 18 17 17 17 17 17 19 16 16 22 28 28 29 29 22 15 14 14 15 15 16 16 16 15 14 19
20 23 23 22 22 21 21 21 20 19 18 18 18 18 17 17 16 16 16 15 16 15 16 16 15 18 25 27 29 29 25 16 16 15 15 16 16 16 15 15 15 16

ECMWFNIL_sfc_dewp_006.txt.gz
Dewpoint
27 27 26 26 25 26 25 26 26 26 26 27 27 27 26 26 26 25 25 24 24 23 22 22 24 23 23 23 23 22 22 22 22 22 23 22 20 21 21 22 22 21
26 26 27 26 26 26 25 25 25 25 26 26 26 27 27 27 26 25 25 24 24 23 22 22 23 23 22 22 22 21 21 22 21 22 22 21 21 22 21 22 22 22
26 26 26 25 25 25 24 25 25 25 25 25 26 26 26 27 26 25 25 24 23 22 22 21 22 22 22 21 21 21 20 21 21 22 22 21 21 21 21 22 21 21
26 26 25 25 25 25 24 24 24 25 25 25 25 25 26 26 26 25 25 25 23 22 21 21 21 21 21 21 21 20 20 21 21 22 21 21 21 21 21 21 22 22
25 25 25 25 25 25 24 23 23 24 24 24 24 25 25 25 25 25 24 24 22 21 20 20 20 21 21 21 21 20 20 20 21 21 21 20 21 21 21 21 21 21
25 25 24 24 24 23 23 22 22 22 23 23 23 24 24 25 24 24 24 24 23 21 20 20 20 20 20 20 20 19 20 20 21 21 20 20 21 21 21 21 21 21
24 24 24 24 23 23 22 22 21 22 22 22 23 23 23 24 24 24 23 23 22 22 20 20 19 19 20 19 20 19 19 19 20 21 20 20 21 21 21 21 21 21
24 23 23 23 23 22 22 21 21 21 21 21 21 22 22 23 23 23 23 23 22 21 20 20 19 19 19 19 19 18 19 19 20 20 20 20 21 21 21 21 21 20
22 23 23 23 22 22 22 21 21 20 20 20 20 21 22 22 22 23 23 22 22 21 20 20 19 18 18 18 18 17 18 19 20 20 20 20 20 20 21 21 20 20
21 21 22 22 22 22 22 21 21 20 20 20 20 20 21 22 22 22 22 22 21 21 20 19 19 18 18 18 17 17 17 18 19 20 19 19 20 20 20 20 20 20
20 20 21 21 22 22 22 21 21 20 20 19 19 19 20 21 21 21 21 21 21 20 20 19 19 18 18 17 17 16 16 17 18 19 19 19 19 19 22 20 20 19
20 20 20 20 21 21 22 21 21 20 19 19 19 19 19 20 20 20 21 21 21 20 20 19 19 18 17 17 17 16 16 17 18 19 19 19 19 19 20 20 19 19
19 19 20 20 20 21 21 22 21 21 20 19 20 19 19 19 20 20 21 20 20 20 19 19 18 18 17 17 16 16 16 16 18 18 18 18 18 18 19 19 19 19
20 19 19 19 19 20 21 21 21 22 21 20 21 20 19 19 20 20 20 20 20 20 19 19 18 18 17 17 16 16 16 16 17 18 18 18 18 18 19 19 18 18
21 20 20 20 21 21 21 22 22 22 22 22 21 21 20 20 20 20 20 21 20 20 19 19 18 17 17 17 16 16 16 17 17 18 17 18 18 18 18 18 18 17
23 22 22 21 21 21 22 22 22 22 22 23 22 22 21 21 20 21 21 21 21 20 20 19 18 18 22 24 23 17 17 17 19 19 18 17 17 17 17 17 17 16
25 24 23 23 23 22 24 24 23 24 24 23 23 23 22 21 21 21 21 21 21 20 20 19 19 19 25 27 27 26 19 18 19 19 18 17 16 16 16 16 16 16
26 26 26 25 25 25 25 25 25 24 24 24 23 22 22 22 21 21 21 21 21 21 20 19 19 24 26 28 28 28 25 19 20 19 19 16 16 16 16 16 15 14
26 26 26 27 26 26 25 25 24 24 24 23 23 23 22 22 21 21 21 21 21 20 20 20 19 25 28 29 29 29 28 23 19 19 19 17 15 15 15 15 15 14
25 26 26 26 26 26 25 25 24 24 24 24 23 23 23 22 22 22 22 21 21 20 20 20 20 25 28 29 30 30 29 25 20 19 18 18 15 15 14 14 14 14
25 24 24 25 25 25 24 24 24 24 24 24 23 23 23 23 22 22 23 23 23 22 22 21 20 26 28 30 30 31 30 27 20 19 18 17 15 14 14 13 13 13
24 24 24 24 23 23 22 24 24 24 24 24 23 23 23 23 23 23 23 23 23 23 22 21 20 26 28 30 31 31 30 23 19 18 18 17 16 13 12 12 12 12
23 23 23 23 22 22 22 22 23 23 23 23 23 23 22 22 23 23 23 23 23 23 22 21 20 25 29 30 31 30 29 21 19 17 17 17 16 14 12 12 12 12
23 22 22 23 22 21 21 22 22 22 23 23 22 22 22 22 22 22 23 23 23 22 22 21 21 24 28 30 30 31 29 20 18 16 16 16 16 14 13 13 13 17
22 21 21 21 21 21 20 20 20 21 20 19 21 21 22 22 21 21 21 21 22 22 23 22 21 23 28 30 31 31 27 19 17 16 15 15 14 14 15 14 14 18
23 21 20 20 21 21 20 20 18 16 17 18 19 20 20 20 20 20 20 20 21 21 21 22 20 21 27 30 30 31 28 19 17 15 14 15 14 14 14 15 16 17

ECMWFNIL_sfc_dewp_009.txt.gz
Dewpoint
32 31 31 30 30 31 30 30 30 30 30 30 29 29 29 29 29 29 28 28 28 27 27 26 26 26 26 25 25 24 24 24 22 22 21 20 17 16 16 17 18 18
31 30 30 31 31 30 30 30 30 30 30 30 29 29 30 30 29 29 29 28 28 27 26 26 26 25 25 23 22 21 21 20 20 22 21 20 18 17 17 18 18 18
30 30 30 30 30 30 30 30 30 30 29 30 30 30 30 29 29 29 28 28 27 26 26 25 25 24 22 21 21 20 20 20 20 21 22 21 19 18 17 19 19 20
30 30 29 29 30 29 29 29 29 29 29 29 29 29 29 29 29 27 27 27 25 24 23 22 22 22 22 21 21 20 19 20 20 22 21 21 20 19 19 20 20 20
27 27 28 28 28 29 28 27 27 27 27 28 28 28 28 27 27 26 25 25 24 23 22 22 21 21 21 20 20 19 18 18 19 21 21 21 20 20 20 20 20 20
26 26 26 26 26 26 25 25 25 26 26 26 27 27 26 26 26 25 25 25 24 23 22 21 20 21 21 20 19 18 18 18 19 20 20 20 20 20 20 20 20 20
24 25 25 25 25 25 25 24 24 25 24 25 25 25 25 26 26 25 25 24 24 23 22 21 20 20 20 20 19 18 17 18 19 20 20 20 20 20 20 20 20 19
23 24 24 24 24 24 24 24 24 23 23 23 24 24 25 25 25 25 25 24 24 23 22 21 20 20 20 19 19 18 17 18 19 20 19 19 20 20 19 20 19 19
22 22 23 23 24 24 24 24 23 23 23 22 23 23 24 24 25 25 25 24 24 23 22 21 20 19 19 19 18 17 16 18 19 20 19 19 20 20 20 19 19 19
22 21 21 22 23 23 23 23 23 23 23 22 22 22 23 24 24 24 24 24 24 23 22 21 20 19 19 18 18 17 15 16 17 18 18 18 19 19 19 19 19 19
24 23 21 21 21 22 22 23 23 23 23 22 21 21 22 22 23 24 24 24 24 23 23 21 20 19 18 18 17 17 15 15 16 17 17 17 18 18 21 19 19 19
25 24 23 22 21 21 21 21 22 23 22 22 22 21 21 21 22 23 23 23 23 23 23 22 21 20 19 18 17 17 15 14 15 16 16 16 16 17 19 19 19 18
25 25 24 24 23 21 21 20 21 23 23 23 22 21 21 21 21 22 23 23 23 23 23 22 21 20 19 18 18 17 15 14 14 15 15 15 15 15 17 18 18 18
25 25 25 25 25 24 23 22 21 22 23 24 24 22 21 21 21 21 22 23 23 23 22 22 21 21 20 19 18 17 16 15 14 15 14 14 14 15 16 17 17 17
25 25 25 26 26 26 26 25 24 23 23 24 24 24 23 22 22 21 22 22 22 22 22 22 21 21 20 19 18 18 17 17 16 16 15 15 14 15 16 17 17 17
25 25 25 26 26 26 26 26 26 25 25 25 25 25 25 24 23 23 22 22 22 22 22 22 21 21 24 27 26 20 18 18 20 18 17 14 15 15 15 16 17 17
25 24 24 25 26 26 28 28 27 28 28 27 27 27 26 25 24 23 23 22 23 22 22 22 21 22 27 28 28 28 21 19 21 20 19 16 15 15 16 17 17 17
24 24 24 25 26 27 27 27 28 28 28 28 28 27 26 26 25 23 23 23 22 22 22 22 22 25 28 29 29 29 27 22 22 21 21 17 15 15 15 16 16 16
24 24 24 25 25 26 26 26 26 26 27 27 27 27 27 26 25 25 23 23 22 22 23 22 22 27 28 29 30 30 29 25 21 22 21 19 16 16 15 15 16 16
24 25 24 24 25 26 25 25 25 25 25 26 27 27 27 26 26 25 25 24 23 22 22 23 22 27 29 29 30 30 30 29 23 22 21 20 17 15 15 15 16 16
24 23 23 23 25 25 25 25 25 25 25 25 26 26 26 26 25 26 26 26 26 25 24 24 22 27 29 30 30 31 31 30 24 22 21 21 17 15 15 15 16 16
21 21 21 23 25 25 25 25 25 25 25 25 24 25 25 25 25 26 26 26 26 26 24 24 23 27 29 30 30 31 31 29 25 23 22 21 20 16 14 14 15 15
17 17 19 23 25 25 25 24 25 25 24 24 24 24 24 24 25 25 25 26 26 26 25 24 25 26 28 29 30 31 31 29 27 23 21 21 20 18 15 14 15 15
15 17 19 23 25 25 24 24 24 24 24 23 23 23 23 24 24 24 25 25 25 25 25 25 25 26 28 29 30 31 31 29 27 24 21 20 20 18 15 15 15 20
14 16 20 24 24 24 23 23 23 23 23 23 22 23 23 23 23 23 23 24 25 25 26 25 25 26 27 28 30 31 31 29 27 23 21 20 19 18 18 16 15 20
13 15 18 22 22 22 22 22 22 21 22 23 23 22 22 22 22 22 23 23 24 24 24 25 25 25 25 27 29 31 31 30 27 23 21 20 19 17 16 17 17 18

ECMWFNIL_sfc_dewp_015.txt.gz
Dewpoint
29 29 30 30 31 32 31 32 33 33 32 33 32 32 33 34 35 35 35 35 35 35 35 34 34 34 34 32 31 29 27 28 27 26 26 24 24 24 25 27 28 25
28 28 28 29 30 30 30 31 32 32 32 32 32 32 33 34 36 36 37 36 35 35 35 35 34 33 33 32 32 30 27 26 27 28 25 26 24 24 24 25 25 25
26 27 27 28 28 29 29 30 30 31 31 31 32 32 33 35 36 37 37 36 35 34 34 34 34 33 33 32 32 30 28 27 26 26 26 26 25 23 22 24 23 25
25 25 25 26 27 27 28 28 28 28 29 31 31 33 33 35 36 36 36 35 35 34 34 34 33 33 33 32 32 30 29 28 26 27 26 24 25 23 21 20 22 22
23 24 23 24 26 26 27 27 27 28 29 29 30 31 30 33 34 33 33 34 34 33 32 32 33 32 32 32 31 30 29 28 27 27 25 24 23 23 22 21 19 19
23 23 22 22 21 24 23 25 26 27 27 27 28 28 29 30 30 31 31 31 30 30 30 30 30 31 31 31 31 30 28 27 25 26 25 23 23 22 24 22 19 18
21 22 22 22 20 21 19 22 24 26 26 27 26 27 27 27 27 28 29 30 30 29 29 29 29 28 29 30 29 28 27 26 26 24 24 23 22 21 22 20 18 16
20 21 21 20 19 20 18 21 22 22 24 25 25 26 26 26 26 27 27 27 28 29 29 28 28 29 28 27 27 27 26 28 28 24 23 23 22 21 19 22 19 17
21 19 19 17 18 19 16 17 21 23 24 24 25 25 25 25 25 25 25 25 25 26 27 28 28 27 27 26 25 25 25 25 27 25 23 22 21 21 20 18 17 17
17 21 18 18 17 17 17 18 19 20 23 25 25 25 25 25 25 25 25 24 25 24 25 26 27 27 27 26 25 24 24 24 23 24 24 23 22 21 20 18 17 16
15 17 16 16 19 18 18 19 20 20 22 22 23 24 25 25 25 25 25 24 26 24 24 24 25 25 26 25 25 24 24 23 23 22 22 22 22 22 23 20 19 17
13 16 18 18 16 16 17 19 20 22 23 24 23 23 24 25 25 24 25 24 24 24 24 24 24 24 24 24 24 24 23 23 23 22 21 21 21 21 21 21 20 18
11 14 18 19 19 18 18 19 18 20 22 24 24 24 23 23 22 23 24 25 25 25 25 25 25 25 26 25 25 24 24 22 23 22 21 21 20 20 20 20 20 20
14 14 18 21 22 21 20 18 18 20 22 23 25 25 25 23 21 23 23 24 24 25 25 25 25 24 25 26 25 24 24 23 23 23 22 22 21 21 20 19 19 19
14 15 19 20 20 21 20 20 20 20 21 22 23 24 26 25 24 24 22 22 23 24 24 25 26 26 26 25 25 25 25 24 24 24 23 23 22 20 19 19 19 19
14 14 16 19 20 20 19 19 19 18 20 22 24 24 23 22 23 24 22 21 21 22 23 26 26 27 29 30 31 28 26 26 25 25 24 23 22 21 20 19 19 19
15 15 16 18 19 19 22 22 19 19 21 22 25 26 26 24 23 22 22 22 21 21 21 24 25 27 30 32 33 33 30 28 28 28 27 24 23 22 21 20 19 18
14 16 17 19 20 22 21 21 21 21 21 22 25 27 26 25 23 23 22 21 21 21 21 22 23 27 30 31 32 33 32 30 29 29 29 26 25 24 23 22 20 19
15 17 18 20 21 21 21 21 20 19 19 20 20 22 26 25 23 23 22 23 22 21 21 21 21 27 29 30 31 32 33 32 29 29 29 29 27 26 24 23 21 21
15 19 19 20 20 21 20 20 19 18 18 18 19 20 23 25 24 24 23 22 22 22 20 19 21 25 28 30 31 30 31 32 31 30 29 29 27 27 26 25 23 22
17 18 18 18 19 19 19 18 17 18 17 17 16 17 19 21 22 22 22 23 23 22 21 21 20 26 27 28 28 30 31 32 30 30 29 29 27 27 26 25 24 24
15 17 17 18 18 18 17 17 17 17 15 15 16 15 16 17 19 21 22 22 22 22 20 20 19 24 26 28 29 29 30 30 30 30 30 30 29 28 27 26 25 24
14 15 16 16 16 17 17 16 15 14 14 14 14 13 14 15 18 19 19 20 21 21 21 21 22 24 25 27 28 28 29 28 29 29 29 29 29 29 28 27 26 25
13 15 15 15 16 16 15 15 13 14 13 13 12 12 12 13 16 18 18 18 19 20 21 20 21 23 24 25 27 27 28 28 27 27 27 28 28 28 28 28 27 28
12 13 14 14 13 14 14 13 13 12 13 13 11 12 12 12 14 16 16 16 16 16 18 18 19 21 23 25 25 26 26 27 27 27 27 27 27 27 28 28 27 28
12 12 12 13 12 12 12 11 11 11 11 10 11 10 10 10 11 12 13 13 13 14 14 14 14 15 19 22 24 24 26 26 25 25 26 26 26 27 27 28 28 28

ECMWFNIL_sfc_dewp_021.txt.gz
Dewpoint
22 22 21 20 21 24 22 23 24 24 25 26 26 27 28 29 29 29 30 30 32 33 33 34 34 34 34 33 33 33 32 32 31 29 28 28 27 26 26 24 22 22
21 22 22 21 21 21 21 22 23 23 23 24 25 26 26 27 27 28 28 29 30 30 31 32 33 33 32 32 32 32 32 31 31 31 30 28 27 26 25 25 24 23
21 20 20 19 20 19 20 21 22 22 23 22 24 24 26 27 26 26 26 27 28 28 29 30 31 31 32 31 31 31 31 31 31 31 30 29 28 27 26 25 24 23
21 21 20 19 21 19 19 20 20 22 22 22 22 23 25 25 25 25 25 26 26 26 27 28 29 30 30 31 31 31 31 31 31 31 30 30 29 28 27 26 25 24
21 21 21 20 20 21 18 20 20 22 21 23 22 23 23 23 23 23 24 24 25 25 25 26 27 27 29 29 30 30 31 31 31 31 30 30 30 29 29 27 26 26
21 21 21 20 19 19 17 19 20 22 21 22 22 23 23 23 23 23 24 24 24 24 24 24 25 26 27 28 29 29 29 30 30 30 30 29 29 29 29 28 27 26
19 20 20 20 18 19 17 18 20 21 20 22 22 20 23 22 22 23 24 24 24 24 23 23 24 24 25 27 27 27 28 29 29 29 29 29 29 29 28 28 27 26
18 17 19 18 17 18 18 18 19 20 20 22 19 20 22 22 22 22 23 23 23 23 23 23 23 23 24 25 25 26 26 28 28 28 28 28 28 28 28 28 27 27
15 16 15 15 16 17 18 18 19 19 21 20 20 20 21 21 22 22 22 22 22 22 22 22 22 22 23 23 23 24 25 25 27 27 27 27 27 27 27 27 27 26
13 14 13 14 15 17 19 19 20 19 20 20 19 19 19 20 21 21 21 21 21 21 21 21 21 21 22 22 23 23 24 24 24 25 26 26 26 26 26 26 26 26
13 13 13 13 13 16 19 20 20 19 20 20 19 18 18 18 19 19 20 20 21 21 21 20 20 21 21 21 21 22 23 23 24 24 25 25 25 25 27 26 25 25
13 13 14 13 14 14 15 18 19 19 19 19 19 18 17 18 18 17 19 19 20 20 20 20 20 20 20 20 21 21 22 22 23 23 24 24 25 25 25 25 25 25
13 13 14 14 14 15 16 16 17 17 18 17 18 17 16 16 16 16 17 18 18 19 20 20 20 20 20 19 20 21 22 21 21 21 23 24 24 24 25 25 25 25
15 14 15 16 16 16 16 16 16 16 16 17 17 17 16 16 15 16 16 16 16 17 18 19 19 18 18 18 19 20 20 20 20 21 21 22 23 23 24 24 25 25
16 16 16 16 15 15 15 15 15 16 16 16 16 16 17 16 15 15 14 14 14 14 14 15 16 17 18 17 18 18 19 20 20 21 20 21 21 22 22 23 24 24
15 15 15 15 15 15 15 15 15 16 16 16 16 16 16 16 15 15 14 13 13 12 12 13 13 15 19 22 23 22 21 22 21 22 22 22 22 22 22 22 23 23
15 15 15 15 15 16 17 17 16 17 17 17 17 16 16 16 15 14 14 13 12 11 11 11 11 12 19 22 23 25 23 22 22 22 22 21 21 22 21 21 21 21
16 16 16 16 16 17 17 17 17 17 17 17 17 16 16 16 15 14 13 12 12 11 11 10 10 17 20 21 22 23 23 21 22 22 22 20 19 19 19 19 20 20
15 16 16 17 17 16 16 16 16 16 16 16 16 15 15 14 13 13 12 12 12 11 11 11 10 17 20 21 21 22 23 22 20 21 22 21 20 19 18 17 17 18
15 15 15 15 15 15 15 15 14 14 14 14 14 14 13 13 12 12 12 11 11 11 11 10 10 16 20 21 22 23 24 24 21 21 21 21 21 20 19 18 17 17
14 13 13 13 12 12 12 11 11 12 12 12 12 11 11 11 10 10 11 11 12 12 11 11 10 18 20 21 22 23 24 24 19 20 20 20 19 19 19 19 18 18
11 10 9 9 8 9 9 9 9 9 9 9 9 9 9 9 9 10 10 10 10 10 10 9 8 17 18 20 21 22 23 18 17 17 17 18 18 17 17 18 18 18
6 6 6 6 7 7 6 6 6 6 6 6 5 5 5 5 6 7 7 7 7 7 7 7 8 13 17 19 20 21 20 15 15 15 16 16 15 16 16 16 16 17
4 5 5 5 4 4 4 4 4 4 3 4 3 3 3 4 4 5 5 5 5 5 6 6 6 10 16 16 17 18 17 12 13 13 14 14 14 14 15 16 17 20
3 3 3 2 2 2 2 1 1 1 2 2 2 2 2 2 2 2 2 3 3 3 8 4 3 6 13 14 15 17 13 11 11 12 12 13 13 13 14 14 13 16
1 1 1 0 0 0 0 0 1 0 0 -0 0 0 -0 -0 -0 -0 -0 -0 1 1 1 2 1 2 4 13 14 16 17 10 11 11 10 11 11 11 12 14 14 14

ECMWFNIL_sfc_dewp_024.txt.gz
Dewpoint
19 20 19 18 20 22 21 21 21 20 20 21 22 22 23 24 24 24 24 24 25 25 26 27 28 29 29 30 31 31 31 31 31 31 30 29 29 28 28 28 27 26
18 20 21 19 20 20 20 22 21 22 21 21 22 23 23 24 23 23 23 23 23 23 24 25 26 27 28 28 29 30 30 31 30 31 30 30 30 29 28 28 27 27
19 19 19 18 18 18 19 20 21 21 22 21 21 22 24 24 23 22 23 23 23 23 23 23 23 24 26 27 28 28 29 29 29 30 30 30 30 30 30 29 28 27
20 20 20 19 20 18 20 19 19 20 20 20 19 21 22 23 22 21 22 23 22 22 23 22 23 23 24 25 26 26 27 28 28 29 29 29 30 30 30 29 29 28
21 21 21 21 21 21 19 20 20 21 20 22 20 21 21 21 21 21 21 21 21 22 22 22 22 21 23 23 24 24 24 25 26 27 28 28 28 29 29 29 29 29
19 21 20 20 19 20 18 18 20 21 20 21 21 20 21 21 21 21 21 21 21 21 21 21 21 20 21 21 22 22 23 23 24 26 26 26 27 28 28 29 28 28
17 18 16 19 15 18 18 18 20 22 20 21 21 19 21 19 19 20 21 21 21 21 21 21 21 21 20 21 21 20 20 21 23 24 24 24 25 25 26 27 27 27
15 16 16 16 13 15 17 17 19 20 20 20 19 20 20 19 19 20 20 20 20 20 20 20 21 20 20 20 20 20 19 21 22 22 22 22 23 23 24 26 26 27
14 15 14 13 14 14 17 16 18 20 20 19 19 19 19 18 18 19 19 19 19 19 19 19 20 19 20 20 19 19 19 19 20 20 20 20 20 21 21 23 24 24
13 14 13 13 13 14 16 16 19 20 20 19 19 19 18 17 18 18 17 17 17 17 17 18 18 18 18 19 19 19 19 19 18 18 19 19 20 20 20 21 22 22
13 13 13 13 13 13 14 15 18 18 19 19 19 18 17 17 17 17 16 16 16 16 16 15 16 16 17 17 18 18 18 18 18 18 18 19 19 19 22 20 21 21
14 13 14 14 14 14 14 14 15 15 16 16 17 17 16 16 16 15 16 15 15 15 15 14 14 15 15 15 15 15 15 16 16 17 17 18 18 18 18 19 20 20
14 14 14 14 15 15 15 14 14 14 14 14 15 15 15 14 14 14 14 14 14 14 13 13 13 13 13 12 12 12 13 13 14 15 15 16 17 17 17 17 18 19
15 15 15 16 16 15 15 15 14 14 14 15 15 15 14 14 14 14 14 14 14 13 13 13 11 10 10 10 10 11 12 12 13 15 15 16 17 17 17 17 17 18
16 16 17 16 15 15 15 15 15 15 16 16 16 15 15 14 14 14 14 14 14 13 12 11 10 9 9 9 11 13 14 15 16 17 17 17 18 18 18 18 18 18
15 15 14 14 14 15 15 15 16 16 16 16 15 14 14 14 14 15 15 14 13 12 11 10 9 8 13 18 20 18 18 18 18 18 18 17 17 17 17 17 17 18
14 14 14 14 15 15 15 16 16 15 15 14 14 13 13 13 14 13 12 11 11 10 9 9 9 9 17 20 22 23 20 18 18 19 18 18 18 17 17 17 17 17
14 14 14 14 15 15 14 13 13 12 11 11 11 11 11 12 11 10 9 9 9 9 8 8 8 15 19 20 22 23 23 19 19 19 19 18 18 18 18 18 18 18
13 13 13 13 13 12 11 10 9 9 9 9 9 10 10 9 8 8 8 8 8 7 7 7 7 14 18 20 21 22 23 21 18 18 18 18 17 17 17 17 17 17
12 11 10 9 9 8 7 7 7 7 7 8 8 8 8 7 7 7 7 6 6 6 6 6 6 12 18 19 20 20 21 20 16 17 17 17 17 16 16 16 15 15
9 7 6 5 5 5 5 5 5 6 6 6 6 6 6 5 5 4 5 5 5 5 5 5 4 14 17 18 18 19 20 19 14 13 12 11 10 11 11 12 12 12
4 3 3 4 4 4 3 4 4 4 4 4 4 4 4 4 3 4 3 3 4 4 3 3 2 13 15 16 17 19 19 12 10 9 9 8 8 7 7 8 9 11
2 2 2 2 2 2 2 1 2 2 2 2 2 2 2 1 1 2 2 2 2 2 2 1 1 7 13 15 16 18 16 9 9 8 8 8 6 7 6 6 7 8
1 0 1 1 0 -1 -0 1 0 1 0 1 0 -0 -0 -0 0 1 1 1 1 0 0 0 1 6 13 14 15 16 15 9 8 6 6 6 6 6 6 6 7 14
-0 -1 -1 -1 -2 -1 -2 -2 -1 -1 -0 -0 -0 -1 -1 -1 -0 -1 -1 -1 -1 -1 5 2 -0 4 11 13 14 15 11 9 8 8 7 7 6 6 6 6 5 10
-2 -2 -2 -2 -2 -2 -2 -2 -2 -2 -2 -2 -2 -2 -2 -2 -2 -2 -3 -2 -2 -2 -2 -2 -2 -1 1 12 13 15 15 9 8 7 7 6 6 6 6 6 5 4

ECMWFNIL_sfc_dewp_027.txt.gz
Dewpoint
20 20 19 20 21 22 20 20 20 19 19 20 20 21 22 23 23 22 22 22 22 22 22 22 23 23 25 24 26 26 27 27 27 29 28 28 27 27 29 28 27 27
20 22 22 20 21 21 20 20 20 20 19 19 20 21 21 21 21 21 21 21 21 21 22 22 22 22 23 23 24 24 24 25 24 28 27 26 27 26 27 26 26 27
20 19 19 19 19 19 19 20 20 20 20 19 19 20 21 22 20 20 21 21 20 20 21 21 21 21 21 22 23 22 22 22 22 25 26 26 26 26 26 26 26 26
19 20 19 19 20 19 20 19 20 20 20 20 20 20 22 22 19 19 20 22 20 20 21 21 21 21 21 21 21 21 21 21 22 24 24 24 24 25 25 25 27 27
18 18 18 17 19 19 19 19 20 20 20 20 20 20 21 19 18 17 18 18 18 18 19 19 20 20 21 20 21 20 20 20 20 21 22 21 21 22 23 25 25 25
17 18 19 17 18 17 16 18 19 20 20 20 20 20 20 19 18 17 18 17 17 17 16 16 17 17 19 19 19 19 19 19 19 20 20 19 19 20 22 23 23 22
15 15 15 16 14 17 15 17 19 21 20 20 19 18 20 18 17 18 18 18 17 17 17 16 16 16 16 16 16 15 16 17 18 19 18 18 19 18 18 19 20 20
15 15 15 15 13 15 15 15 17 18 19 19 17 18 18 18 17 18 18 17 17 17 16 16 16 16 16 16 15 15 15 16 16 15 15 15 16 16 16 18 18 18
14 14 13 13 13 13 14 14 16 17 19 18 17 17 18 17 17 17 17 16 16 16 16 15 15 15 15 15 15 15 15 14 15 14 13 13 13 13 14 16 16 17
13 13 13 13 13 13 14 14 15 17 18 17 17 17 17 17 17 16 16 15 14 14 13 14 13 13 13 13 14 14 13 13 12 12 12 12 12 13 13 13 14 15
13 13 13 14 14 14 14 14 14 15 15 16 15 15 15 15 15 15 14 14 13 13 13 13 13 13 13 12 12 11 11 11 11 11 11 11 12 12 17 14 14 14
14 14 14 14 15 15 15 14 14 14 14 14 15 15 15 14 13 12 13 12 12 12 13 13 12 12 12 11 10 10 10 9 9 9 10 10 11 12 12 13 14 15
14 15 15 15 15 15 15 14 14 14 15 15 15 15 14 13 12 11 11 12 12 12 12 12 12 11 10 9 8 8 9 9 10 11 12 13 14 14 14 15 15 16
15 15 16 16 15 14 14 14 15 15 15 15 15 14 13 11 11 11 11 11 11 11 11 11 9 8 8 7 8 10 12 14 15 16 16 16 16 16 16 16 16 16
15 16 16 15 14 14 14 15 15 15 14 13 12 11 10 10 10 10 10 9 9 9 8 8 7 7 7 9 12 14 16 16 17 17 16 16 16 17 17 16 16 16
15 14 14 14 14 14 14 13 12 11 10 8 8 8 8 9 9 9 8 8 7 7 7 6 6 6 11 17 20 17 16 16 16 17 17 17 16 16 16 16 16 16
14 13 13 13 13 13 10 9 9 8 7 7 7 7 7 7 7 7 6 6 6 6 5 5 5 5 14 18 20 21 17 16 16 16 16 16 16 16 15 15 15 15
13 12 12 11 9 8 7 5 5 5 5 6 6 6 6 6 6 5 5 5 4 4 4 4 4 10 15 17 19 20 20 15 15 15 14 13 13 13 13 13 13 12
11 8 7 6 5 4 4 4 4 4 4 4 4 5 5 4 4 4 3 3 3 2 3 3 2 10 14 17 19 20 20 18 14 14 14 13 12 11 10 9 9 8
7 4 4 3 3 3 3 3 3 3 3 3 4 4 4 3 2 3 2 2 2 2 2 1 1 8 15 17 18 19 19 19 14 13 13 12 10 8 7 6 5 5
3 2 2 2 1 2 2 2 2 2 2 3 3 3 2 2 2 1 1 1 1 1 1 0 -1 11 15 17 17 18 19 19 13 12 10 9 7 6 5 5 5 5
1 0 0 -0 1 0 0 1 1 -0 0 1 1 1 1 1 1 0 0 -0 0 0 -0 -1 -1 11 14 15 17 18 20 13 11 9 8 8 6 6 5 4 4 3
1 -0 -1 -1 -1 -1 -1 -1 -0 -1 -1 -0 -1 -0 -0 -1 -1 -1 -0 -0 -1 -1 -1 -1 -1 5 13 15 16 18 16 10 9 9 8 7 5 5 4 4 4 4
0 -1 -2 -2 -3 -3 -3 -1 -2 -2 -2 -2 -2 -2 -2 -2 -2 -1 -2 -1 -1 -2 -2 -2 -1 5 12 14 16 16 15 11 9 8 7 7 6 5 5 5 5 11
-2 -2 -3 -4 -4 -3 -4 -3 -3 -3 -2 -2 -2 -2 -2 -2 -2 -2 -3 -3 -3 -2 2 0 -1 2 9 13 14 15 12 10 10 9 8 7 6 6 5 4 3 7
-3 -3 -4 -5 -3 -4 -4 -4 -4 -3 -4 -3 -3 -3 -3 -3 -3 -3 -4 -4 -3 -3 -3 -3 -3 -3 0 12 14 15 16 11 10 9 7 7 7 7 6 7 6 6

ECMWFNIL_sfc_dewp_030.txt.gz
Dewpoint
20 20 20 20 21 21 19 19 19 18 18 19 19 19 20 19 20 19 20 19 20 19 20 20 20 20 21 20 21 20 21 22 21 24 24 25 24 25 25 25 25 26
20 22 23 21 21 21 20 20 20 19 19 19 20 20 20 20 19 19 19 19 18 18 19 19 19 19 19 18 20 18 18 19 18 22 22 22 22 23 22 23 24 25
19 19 19 18 19 19 20 21 20 20 20 20 20 21 20 21 19 19 19 20 18 18 18 18 18 18 19 18 19 17 17 18 16 19 20 19 20 20 21 22 23 23
18 18 18 19 19 19 20 20 20 20 20 19 19 20 20 20 18 17 17 19 17 17 17 18 18 18 19 18 19 17 17 18 17 19 18 17 17 18 18 20 22 22
16 17 17 17 17 19 19 19 20 19 19 19 18 20 19 18 17 16 16 15 15 15 15 15 16 16 17 17 17 16 16 17 17 18 17 16 15 17 17 18 18 17
16 18 18 17 18 16 16 18 19 20 19 17 18 19 19 17 16 16 16 15 15 15 14 14 14 14 15 15 14 13 13 13 14 15 14 13 13 15 17 17 17 16
14 14 15 15 16 16 15 16 18 20 19 19 18 17 19 17 17 16 17 16 15 15 15 14 14 14 14 15 13 12 12 12 13 12 11 11 12 11 12 13 14 14
14 15 15 14 14 15 15 15 16 17 18 17 16 17 18 17 17 16 16 15 14 14 14 14 14 14 14 13 13 12 11 12 12 11 10 10 10 9 10 11 11 11
14 14 13 13 13 14 14 14 15 16 18 15 16 16 16 16 16 16 15 14 13 13 13 13 13 13 13 13 12 12 11 10 10 10 9 9 9 9 10 10 11 12
13 13 13 13 13 14 14 14 15 15 16 15 15 15 15 15 15 15 14 13 12 12 12 12 12 13 12 12 12 11 10 9 9 9 9 9 9 9 10 11 11 12
13 13 13 13 14 14 14 14 14 14 14 14 15 14 14 14 13 13 11 11 10 11 11 12 12 12 11 11 10 10 9 9 8 8 9 9 10 11 15 12 12 13
13 13 14 14 15 15 14 14 14 14 14 15 15 13 12 12 10 9 10 10 10 10 11 10 10 10 9 9 8 8 8 8 9 10 11 12 13 13 14 14 14 14
14 14 14 15 15 15 14 14 15 15 14 13 13 10 9 8 7 8 8 9 8 8 8 8 8 7 7 7 7 7 9 12 13 15 15 15 15 15 15 15 15 15
14 15 15 15 15 14 14 15 14 13 11 11 10 7 7 7 7 7 7 7 7 7 7 7 6 5 5 5 7 11 13 14 15 15 14 14 14 14 14 14 14 14
15 16 15 14 14 14 13 12 11 10 8 7 6 6 7 7 7 7 6 6 6 5 5 4 4 4 4 7 12 14 15 15 14 14 14 14 14 14 14 13 14 14
15 14 14 14 13 13 11 9 8 7 6 5 5 6 5 7 6 5 5 5 4 4 3 3 3 3 8 15 19 16 15 15 15 15 15 14 14 13 13 12 12 12
13 13 13 12 11 9 6 5 5 4 3 4 4 4 4 5 5 4 3 3 3 2 2 2 2 2 12 17 19 20 17 15 15 15 14 13 12 11 11 11 11 10
12 12 11 9 6 5 4 3 3 2 2 2 2 2 3 3 2 2 2 2 2 1 1 1 1 7 14 16 18 20 21 17 16 15 14 12 12 11 11 10 9 8
11 8 6 4 3 2 2 1 0 1 0 1 1 1 1 1 1 1 1 1 1 0 0 0 0 7 13 16 18 20 21 19 16 15 14 13 11 10 9 8 7 6
6 3 2 2 1 0 0 -0 -1 -1 -1 -0 0 2 1 0 -1 1 0 -0 -0 -0 -0 -1 -1 6 14 17 18 19 20 20 16 14 13 11 9 8 7 6 5 5
3 1 1 0 -0 -1 -2 -2 -2 -2 -0 0 0 1 1 0 -0 -1 -1 -1 -1 -1 -1 -1 -2 9 15 17 18 19 21 20 15 12 10 8 7 7 6 6 5 4
1 -0 -1 -1 -0 -2 -3 -1 -1 -3 -3 -1 -2 -1 -3 -2 -1 -3 -2 -2 -2 -2 -2 -2 -2 10 14 16 18 19 20 14 11 9 9 9 8 7 6 5 4 4
0 -1 -2 -2 -3 -3 -4 -3 -2 -4 -3 -3 -3 -2 -1 -3 -3 -3 -3 -2 -3 -3 -3 -3 -2 4 13 15 17 18 16 12 11 9 8 8 7 7 7 6 5 4
-0 -2 -3 -3 -5 -5 -5 -2 -4 -4 -4 -5 -3 -3 -3 -4 -4 -3 -4 -4 -3 -4 -4 -3 -2 3 12 15 16 16 16 12 10 9 8 8 8 8 7 7 6 10
-2 -3 -4 -5 -6 -4 -6 -5 -5 -6 -5 -6 -6 -6 -4 -4 -4 -4 -5 -5 -5 -4 1 -0 -2 1 9 12 15 16 14 12 11 10 10 9 9 8 8 7 6 9
-4 -4 -4 -6 -4 -6 -6 -6 -6 -7 -7 -6 -7 -7 -5 -5 -5 -5 -6 -6 -5 -5 -5 -4 -4 -4 -1 12 14 16 17 13 12 11 10 9 8 8 8 9 8 8

ECMWFNIL_sfc_dewp_033.txt.gz
Dewpoint
21 21 21 21 20 21 20 19 19 19 19 19 18 19 18 19 20 20 19 19 19 19 19 19 19 19 20 19 19 18 18 19 18 20 20 20 19 22 21 21 22 22
22 23 23 22 22 22 20 20 20 20 20 20 20 19 20 19 20 20 20 19 18 19 19 19 19 19 19 18 19 17 16 16 16 21 19 19 18 19 18 20 20 21
21 22 21 20 20 21 21 21 21 20 20 21 21 20 20 20 19 19 19 18 17 17 18 18 18 18 18 18 18 16 16 16 15 17 17 16 16 16 16 18 18 20
20 21 21 21 21 21 21 21 21 20 20 20 20 21 20 20 19 17 17 18 15 14 16 16 16 16 17 17 17 14 15 14 15 17 15 14 14 15 14 16 16 16
18 19 19 20 21 21 21 21 20 20 20 20 21 20 19 18 17 15 14 13 13 13 13 13 13 14 15 14 14 13 12 11 13 14 11 11 12 11 13 13 12 12
17 19 18 19 19 19 18 19 20 19 19 18 20 20 18 17 15 15 15 14 13 13 12 12 12 13 13 13 12 11 10 10 10 10 9 8 9 10 12 12 12 10
14 14 15 15 15 15 15 17 19 20 18 18 17 17 17 16 15 15 14 14 12 13 12 12 12 12 12 12 11 10 10 10 9 9 8 8 9 9 9 9 10 10
14 14 14 14 14 14 15 15 16 17 17 15 15 16 16 15 14 14 14 13 11 11 11 11 12 12 12 11 11 10 9 9 9 8 8 8 8 9 9 10 10 11
14 13 13 13 14 14 14 14 15 16 17 15 15 15 15 15 14 14 12 12 11 10 10 10 10 11 11 10 10 9 8 8 8 8 8 8 9 9 10 11 11 12
13 13 13 13 13 14 14 14 15 15 16 15 15 14 13 13 13 12 9 10 9 9 9 10 10 9 9 9 8 8 7 7 7 7 8 9 10 11 11 12 12 12
13 13 13 14 14 14 14 14 14 14 15 14 13 12 13 11 9 9 8 8 8 8 8 8 8 7 7 7 7 7 6 6 7 9 10 11 12 12 15 13 13 12
13 13 14 14 14 14 14 14 14 14 14 14 12 9 9 9 7 6 8 7 6 7 7 7 6 5 5 5 5 5 6 8 10 11 12 13 13 13 12 12 12 12
13 13 14 14 15 14 14 14 14 14 13 10 12 7 6 5 6 6 6 6 5 6 5 4 4 4 4 4 3 5 8 11 13 13 13 13 12 12 12 12 12 12
14 14 14 15 15 14 14 14 14 12 10 9 9 6 5 5 5 5 5 5 5 4 3 3 3 2 2 2 3 8 12 14 14 14 13 13 12 12 12 12 12 11
14 15 15 15 15 15 14 13 11 9 8 6 5 5 5 5 5 4 4 3 3 3 2 2 2 2 1 3 9 14 14 15 14 14 13 13 12 12 12 11 11 10
15 15 15 14 14 13 12 10 8 6 5 4 5 4 4 4 4 4 3 2 2 1 1 1 1 1 5 14 18 17 16 16 16 16 15 14 14 12 11 11 10 10
15 15 14 14 13 11 10 7 5 6 7 6 4 3 4 3 3 2 1 1 1 0 0 0 0 0 11 16 19 20 18 17 17 17 16 15 14 12 11 10 9 8
15 14 13 12 9 9 8 7 6 6 5 5 4 3 3 3 1 0 0 0 -0 -0 -1 -1 -1 6 13 16 19 20 21 18 18 17 16 14 13 12 11 9 8 7
14 14 12 10 7 5 5 5 4 4 3 3 2 3 3 1 -0 0 -0 -0 -1 -1 -1 -1 -1 7 13 16 19 20 21 20 18 17 16 15 13 11 10 7 6 5
13 12 9 7 4 4 4 3 2 2 2 2 2 2 2 1 0 0 -0 -2 -2 -2 -2 -2 -2 5 14 17 19 19 20 20 18 17 15 12 10 8 7 6 5 5
11 8 7 5 4 3 2 2 1 1 1 2 1 1 1 1 0 -1 -1 -1 -1 -1 -2 -2 -3 9 15 17 18 19 20 20 17 14 12 10 8 7 7 6 6 6
8 6 5 3 3 1 1 2 1 1 -0 0 -0 1 1 0 -0 -1 -1 -1 -1 -1 -2 -2 -3 9 13 15 17 19 20 16 14 12 11 11 10 8 7 6 6 6
6 4 3 2 1 1 -1 -0 1 -1 -1 -1 -2 -0 0 -1 -2 -2 -2 -2 -2 -2 -3 -3 -2 4 12 15 17 18 17 13 13 12 11 10 8 8 8 7 7 6
4 3 2 1 -0 -1 -1 1 -1 -2 -2 -1 -2 -2 -1 -3 -3 -3 -3 -3 -3 -3 -3 -3 -1 3 11 14 16 17 17 14 12 11 11 11 11 10 9 8 8 12
2 1 1 -1 -2 0 -2 -1 -3 -3 -2 -2 -3 -3 -3 -4 -3 -4 -4 -4 -4 -4 1 -0 -1 1 8 12 14 16 15 13 13 12 11 11 10 9 9 9 8 11
0 -0 -1 -2 -1 -3 -3 -3 -3 -4 -4 -3 -4 -5 -5 -5 -5 -5 -5 -6 -5 -4 -4 -4 -4 -4 -1 11 14 16 17 14 13 12 10 10 10 10 10 11 11 11

ECMWFNIL_sfc_dewp_036.txt.gz
Dewpoint
22 21 21 20 19 21 19 20 19 19 18 18 17 17 17 19 20 21 20 21 21 21 21 21 20 21 22 20 21 19 18 19 18 20 21 20 20 22 24 22 22 19
21 21 21 21 20 20 20 21 21 19 19 18 18 18 19 20 20 21 20 20 20 20 20 20 19 19 19 18 20 17 16 17 18 20 18 19 17 17 18 20 19 19
21 22 21 21 20 21 21 21 21 20 19 20 20 18 21 20 20 19 18 19 18 18 19 19 19 18 18 18 19 16 16 18 17 17 18 18 17 17 17 18 18 19
21 21 21 21 21 20 21 21 21 20 20 19 19 20 20 21 19 17 17 17 15 15 16 17 18 16 18 17 18 15 16 15 16 17 16 15 16 16 16 16 16 16
21 20 20 20 21 20 21 21 20 20 19 19 19 19 17 18 16 13 11 10 11 10 12 13 13 14 15 14 14 12 12 10 14 14 12 12 14 15 15 15 14 14
19 19 19 19 19 19 17 18 18 18 19 18 19 17 16 15 12 12 11 9 8 9 7 9 9 10 11 10 9 7 7 7 8 10 8 7 11 13 15 15 14 11
14 16 15 16 15 16 14 16 18 18 17 17 15 13 12 11 11 10 9 9 9 9 8 9 10 9 9 9 7 7 6 7 8 7 7 7 8 9 10 11 10 10
11 12 12 13 12 13 12 13 13 13 13 12 10 12 9 9 9 11 8 7 7 7 8 8 8 10 8 6 6 6 5 12 10 6 7 7 8 7 9 12 10 10
12 12 12 12 11 11 11 11 12 11 11 9 8 8 9 7 7 7 7 7 5 6 7 7 7 6 5 5 5 5 4 4 7 5 6 7 7 8 8 9 10 10
12 12 12 11 10 10 10 12 11 11 11 8 7 6 6 7 7 6 5 5 4 5 5 5 4 5 4 4 4 4 3 4 4 5 6 7 8 9 9 9 10 10
12 11 10 9 10 10 11 11 11 10 10 8 5 6 6 5 5 5 4 5 3 4 4 4 5 4 3 3 3 3 3 4 5 6 7 9 10 10 13 11 11 10
11 11 10 10 11 11 11 11 11 11 10 7 4 5 5 5 3 4 5 4 4 5 4 4 4 3 3 2 2 2 2 4 7 9 10 11 11 11 11 11 10 10
12 12 11 12 11 11 12 12 11 10 8 8 5 4 4 3 4 3 4 4 3 4 3 3 2 2 2 1 1 1 3 6 10 12 12 12 11 11 11 11 11 10
12 13 12 12 12 12 12 12 12 10 7 5 6 4 4 3 3 4 3 3 3 3 2 2 1 1 0 0 -0 2 7 11 13 13 13 12 12 12 12 11 11 11
13 13 14 14 13 14 14 14 12 8 6 5 5 4 4 3 4 4 3 3 2 2 1 1 1 0 0 -1 3 9 13 14 15 15 14 14 14 13 12 11 10 10
14 14 15 15 15 14 14 13 9 7 6 5 7 4 4 4 4 3 3 3 2 1 1 1 0 0 4 11 15 16 17 17 17 17 16 15 15 13 13 12 10 9
15 15 16 16 16 15 18 13 10 10 11 9 7 6 6 5 5 3 3 2 2 1 1 1 0 1 9 14 19 21 19 18 18 18 18 17 16 14 13 12 10 9
16 17 17 18 18 19 17 15 12 12 11 11 9 8 7 6 5 4 2 1 1 1 1 0 0 6 13 16 19 21 22 20 20 19 19 16 15 15 13 12 10 8
17 20 21 21 20 17 16 14 13 12 12 11 10 9 7 6 4 3 2 2 1 1 0 0 0 7 12 16 19 21 22 21 19 19 18 17 15 14 12 10 7 6
19 22 21 20 18 16 13 13 13 12 11 10 9 8 8 7 7 5 5 2 1 -0 -0 -0 -0 5 12 17 20 21 22 21 19 18 18 16 15 12 9 7 6 5
20 20 20 19 16 15 13 13 11 11 10 9 8 8 9 8 6 7 6 5 4 3 0 0 -1 9 14 17 19 20 21 21 19 18 16 15 12 9 8 7 6 6
20 20 20 17 14 13 12 12 11 11 10 9 6 6 6 5 6 5 5 5 5 4 2 0 -1 9 13 16 18 19 21 18 17 15 13 13 11 11 10 8 7 6
19 19 19 16 14 13 12 12 12 9 8 6 6 7 7 6 6 5 4 4 4 3 2 0 3 6 11 15 17 19 19 15 14 14 14 13 11 11 10 9 9 8
18 19 18 15 14 14 12 11 9 8 7 5 6 5 5 6 4 3 3 2 3 2 2 2 2 5 11 14 16 17 17 15 14 13 12 12 12 11 11 10 10 14
17 17 17 15 13 13 11 11 9 7 6 4 3 4 4 3 1 2 2 2 2 1 4 4 4 5 9 12 15 16 16 15 14 13 12 12 12 12 11 10 9 12
16 16 16 14 13 12 9 8 6 3 4 3 3 2 1 0 -0 1 1 1 1 0 -0 1 0 1 3 11 14 16 18 15 14 13 12 12 12 11 11 12 12 12

ECMWFNIL_sfc_dewp_042.txt.gz
Dewpoint
25 23 22 21 22 23 20 19 18 16 16 18 19 20 22 23 25 23 23 24 24 24 23 22 22 23 23 22 22 20 20 20 20 21 21 21 20 20 22 20 21 19
23 24 24 23 24 24 22 20 18 17 17 18 20 22 23 24 24 24 23 23 23 22 22 21 21 22 22 21 21 19 20 21 19 22 19 20 19 19 19 20 20 20
23 22 21 20 21 21 21 21 20 19 19 20 20 22 24 23 23 23 22 21 21 21 22 21 21 20 20 20 21 19 20 18 17 19 20 20 19 18 18 19 18 19
21 21 21 22 22 21 21 21 21 21 20 20 20 23 24 23 20 19 19 22 20 20 20 21 21 20 20 19 18 18 20 19 16 17 17 17 18 18 18 18 20 19
22 22 22 22 22 22 20 19 19 19 20 21 22 22 21 20 19 19 19 19 19 20 19 20 19 17 17 16 16 13 15 16 16 15 15 14 16 16 17 17 17 17
22 22 22 21 21 21 19 19 20 20 20 19 19 21 20 20 19 18 18 17 17 17 17 17 16 16 15 14 14 13 12 12 13 12 11 11 12 15 17 17 16 15
20 21 21 21 21 21 20 20 20 20 19 20 20 20 20 19 17 17 16 16 15 17 16 16 15 13 13 12 13 10 12 15 13 10 8 10 11 11 14 14 14 14
20 20 21 20 19 19 19 20 19 20 20 19 18 19 19 18 18 17 16 17 15 15 15 15 15 13 9 10 9 9 7 18 15 8 7 7 8 8 11 16 12 12
19 19 19 18 16 16 17 18 19 19 19 17 17 17 18 16 16 15 14 15 14 13 13 11 11 9 7 7 7 5 5 5 11 5 5 6 6 7 9 11 11 11
15 16 15 14 13 14 15 16 17 18 18 16 15 15 14 14 14 13 12 10 10 10 9 8 8 6 5 4 6 4 3 6 4 4 4 5 6 7 8 10 10 10
11 11 11 10 10 11 12 13 13 15 16 13 12 12 12 11 11 10 8 9 10 8 7 5 5 5 6 5 5 3 3 3 3 3 5 6 7 8 18 13 10 10
9 9 9 9 9 9 10 11 11 11 11 11 10 10 8 7 7 7 5 4 5 4 3 3 3 2 2 2 1 2 2 1 2 3 6 8 9 10 11 11 11 10
8 8 9 8 9 8 10 11 10 9 7 8 9 6 4 3 4 5 6 3 4 3 3 3 2 2 3 4 3 3 3 1 3 6 9 10 12 12 12 11 11 11
8 7 7 8 9 11 12 11 10 8 6 7 8 4 4 3 3 4 6 4 3 4 3 6 3 2 2 3 3 2 2 3 7 11 13 13 13 13 13 12 12 11
8 7 7 10 13 12 13 12 11 9 8 7 8 6 7 5 4 4 4 3 3 2 2 3 1 1 1 -0 2 6 10 13 14 15 15 15 15 14 14 14 13 13
8 10 9 12 14 14 14 13 11 11 10 9 9 8 7 6 5 4 3 4 3 2 2 2 2 2 10 13 15 11 13 16 17 17 16 16 16 15 15 15 15 14
9 10 11 14 15 16 19 17 14 14 15 14 13 11 10 9 5 4 4 4 4 3 2 2 2 3 11 15 17 19 18 18 16 16 17 16 16 16 16 16 15 15
11 14 15 17 19 21 21 20 18 18 16 16 14 13 12 10 6 5 5 4 3 3 3 3 3 11 13 16 18 20 22 19 16 16 16 17 17 16 16 16 15 14
14 17 20 21 22 21 22 20 19 18 18 17 15 14 12 9 6 6 5 5 4 3 3 4 3 11 15 18 19 20 22 22 18 20 20 18 17 16 16 16 15 14
17 20 21 22 22 22 21 20 19 18 17 16 14 13 11 9 7 8 7 5 4 4 4 3 3 11 15 18 19 20 22 22 19 20 19 19 18 17 16 16 15 14
18 20 20 21 22 22 20 19 18 16 16 15 14 13 12 11 10 9 8 8 7 5 4 4 3 11 14 17 19 20 21 21 20 20 19 18 18 17 17 16 15 12
20 21 21 21 21 20 19 19 17 16 15 15 13 12 9 9 8 9 9 8 7 6 5 3 3 13 16 17 19 20 22 20 19 18 17 17 16 16 15 13 12 10
20 20 21 21 21 20 19 19 18 16 15 14 13 13 12 11 11 10 10 9 7 6 5 4 3 11 15 17 19 20 20 18 18 17 16 16 15 13 12 11 11 11
19 21 21 21 22 21 20 19 18 17 16 14 13 12 12 11 10 8 8 8 8 7 6 5 4 8 14 17 18 19 20 17 16 14 13 13 13 13 13 12 12 15
21 21 22 22 22 21 20 20 18 17 16 14 13 12 11 10 9 8 6 5 6 6 11 7 4 8 14 17 18 19 20 18 16 14 13 13 12 12 13 13 12 14
22 23 22 22 22 22 20 20 18 15 14 13 12 12 10 9 8 8 6 5 4 4 5 7 5 3 6 15 18 20 21 17 14 13 12 12 12 13 13 13 13 12

ECMWFNIL_sfc_dewp_045.txt.gz
Dewpoint
20 19 18 16 15 16 13 13 14 14 15 16 17 19 20 22 24 23 23 22 21 20 21 21 21 21 22 20 20 19 20 20 20 20 20 21 20 20 21 19 20 19
21 21 20 18 20 20 16 15 15 16 17 18 20 21 23 22 23 22 21 20 20 19 20 20 20 20 20 19 19 19 19 19 19 23 20 19 19 19 19 19 19 20
22 21 20 18 18 17 17 16 17 17 18 20 22 22 23 22 22 21 20 19 18 18 19 19 19 20 20 20 20 19 16 16 16 19 21 19 19 17 18 18 18 19
21 20 20 19 19 18 18 17 18 19 20 21 21 23 23 23 21 20 20 21 18 18 18 18 19 19 20 20 20 18 16 16 17 18 17 19 20 18 18 19 21 18
21 21 22 21 20 19 18 17 18 19 19 20 22 22 22 20 18 18 18 18 18 18 19 19 19 19 19 18 18 18 17 14 16 16 14 14 15 16 16 18 17 15
21 22 22 21 20 19 17 17 18 18 20 21 21 21 19 17 17 17 17 17 18 18 18 18 16 16 15 14 12 13 12 11 14 14 12 10 9 15 18 18 16 13
21 21 21 21 19 18 17 18 18 19 19 20 20 18 17 16 17 17 17 17 17 18 17 16 15 13 13 12 11 12 12 13 11 9 7 10 12 9 14 15 15 13
20 20 20 20 18 17 17 18 18 18 19 19 16 17 17 16 16 17 16 16 16 16 15 14 13 11 11 9 9 11 14 15 8 6 6 7 8 7 10 15 12 11
19 19 19 18 17 17 17 17 17 17 19 17 17 18 17 16 16 16 16 15 15 14 14 12 10 8 7 6 5 4 4 7 7 5 5 6 6 6 8 11 10 10
18 18 18 17 16 16 16 16 17 18 18 17 17 17 16 16 16 15 14 13 12 11 9 8 6 5 5 5 4 3 3 4 4 4 5 5 6 6 8 9 10 10
17 17 16 16 16 16 16 16 16 16 16 16 16 15 15 14 14 12 10 10 10 8 6 4 4 4 4 4 4 3 2 3 3 3 4 5 6 7 18 13 11 10
16 16 14 14 15 15 16 16 16 15 15 15 14 14 12 10 9 8 8 7 6 6 4 4 4 3 3 2 2 2 2 2 3 3 4 6 8 9 10 11 11 11
14 14 13 13 14 14 15 15 14 14 14 13 13 11 9 8 7 7 7 5 5 4 3 3 2 2 2 2 2 2 2 1 2 4 6 8 10 11 12 12 11 11
13 12 11 12 12 12 13 13 13 13 12 12 12 9 8 7 6 6 5 5 4 4 3 4 2 2 3 3 2 2 3 2 3 5 8 11 13 13 13 13 12 12
11 10 10 11 12 12 13 13 12 11 12 12 11 9 8 6 6 6 5 5 4 4 4 4 3 2 2 2 2 2 2 3 11 14 14 14 15 15 15 14 14 14
9 11 10 11 11 12 13 13 12 11 12 12 12 9 8 7 6 6 6 6 6 4 4 3 2 1 11 15 15 5 11 14 16 15 15 15 15 15 14 15 15 14
9 10 10 11 12 13 16 15 14 14 15 14 13 11 11 10 8 8 7 7 6 5 3 3 2 3 15 18 18 17 11 14 15 15 15 15 15 14 14 14 14 15
10 11 11 13 15 17 18 18 17 17 17 17 16 14 13 12 9 8 7 6 6 5 3 3 2 14 18 21 21 21 22 16 15 14 14 16 15 15 15 15 15 14
11 12 13 16 17 18 19 19 19 18 17 17 15 15 14 12 9 9 7 7 5 4 4 4 3 17 19 21 22 23 24 22 16 16 15 15 16 15 15 15 14 14
13 16 15 16 17 19 19 19 18 18 17 17 16 16 15 14 12 11 9 6 5 4 5 4 4 17 21 22 23 23 23 24 16 17 15 17 18 17 16 15 15 14
15 15 16 17 19 20 19 18 18 18 18 18 17 16 15 14 11 10 9 9 8 6 5 5 4 17 20 22 23 23 24 25 17 17 18 18 18 17 16 16 15 15
16 17 17 18 19 20 19 19 18 18 18 17 16 15 14 11 8 7 9 9 8 7 6 5 4 17 19 21 23 24 24 19 17 17 17 17 17 16 16 16 14 13
16 17 18 19 19 19 19 19 19 17 17 17 15 15 13 11 11 10 10 9 8 7 6 5 5 15 19 21 22 24 25 16 16 16 16 16 15 14 14 13 12 12
16 19 19 20 20 19 19 19 18 18 16 15 14 13 13 12 11 10 9 9 8 7 7 6 6 12 19 21 22 23 23 15 16 16 15 14 12 13 13 12 12 15
19 19 20 20 20 20 20 19 18 17 16 15 15 14 14 12 10 10 8 7 8 7 12 8 6 10 18 21 22 23 23 15 15 13 13 12 11 11 12 12 12 14
20 21 21 20 21 20 20 19 18 16 16 15 14 14 13 11 10 10 9 8 7 6 7 10 6 4 10 20 22 23 24 16 14 13 12 11 11 10 9 9 11 11

ECMWFNIL_sfc_dewp_048.txt.gz
Dewpoint
15 13 12 11 10 12 10 12 12 11 12 13 12 14 15 18 23 21 22 22 21 21 21 20 19 19 21 19 19 19 19 20 20 20 19 20 19 19 20 20 19 19
15 15 16 13 16 16 12 12 12 12 12 13 15 17 20 22 22 22 21 21 21 20 19 18 18 18 18 18 18 17 18 18 19 22 18 18 19 19 20 20 19 19
17 17 15 12 12 12 12 13 14 14 14 16 19 20 22 22 22 21 20 20 19 19 19 19 18 18 18 18 18 17 17 18 18 19 18 17 18 17 18 19 19 18
18 16 14 13 13 13 14 15 16 17 19 20 20 22 22 22 20 19 19 20 18 18 19 18 18 18 17 17 16 16 17 17 19 20 19 19 19 18 17 19 20 18
18 17 16 15 15 16 15 15 16 18 19 19 21 22 21 20 18 17 17 17 17 17 18 18 18 18 18 16 15 14 15 15 17 18 17 17 18 17 17 18 16 14
19 19 18 17 17 16 15 15 17 18 19 20 20 21 19 18 16 16 16 15 15 16 17 17 17 18 18 17 15 13 11 11 13 14 14 13 13 16 18 17 15 13
19 19 18 18 17 16 14 16 17 19 19 19 20 19 17 16 15 15 15 15 16 17 16 16 16 16 16 15 13 10 9 9 9 9 8 9 11 13 16 15 13 11
19 20 19 19 16 15 14 16 17 18 19 20 18 17 16 15 15 15 15 16 16 16 15 15 14 13 13 11 10 10 10 8 7 7 8 8 7 9 12 12 11 10
20 19 19 17 15 15 14 15 17 18 19 18 16 16 15 14 15 15 16 16 15 15 15 13 13 10 9 9 9 10 10 7 6 6 6 6 6 7 8 11 10 11
19 19 18 16 15 14 14 15 16 17 19 16 16 15 14 15 15 15 15 15 14 14 12 11 9 7 7 7 8 8 7 5 4 5 5 6 6 6 8 10 9 10
18 18 17 16 14 14 14 15 15 16 17 14 14 14 14 14 15 14 13 14 13 12 10 7 6 5 5 4 4 4 3 3 3 4 4 5 6 7 14 9 11 10
18 18 17 15 15 14 14 14 15 16 15 14 14 14 13 13 14 13 13 12 11 10 8 6 4 4 4 3 3 3 3 3 3 3 4 5 6 7 14 12 11 10
17 17 16 16 15 14 14 14 14 14 14 14 14 13 13 12 12 11 12 11 10 8 6 4 4 3 3 3 3 2 2 2 3 3 4 6 8 9 10 11 11 11
17 17 16 15 15 14 14 14 14 14 14 14 15 13 12 11 11 10 10 9 8 7 5 4 3 3 2 2 2 2 2 2 2 3 5 7 10 11 12 12 12 11
16 16 15 15 16 15 15 14 14 14 14 14 14 13 12 11 11 11 9 8 7 6 4 4 3 2 2 2 2 3 3 3 3 5 6 9 13 13 14 13 13 13
16 16 14 15 15 15 15 15 14 14 14 14 15 13 12 12 10 10 9 8 7 6 5 4 3 2 11 16 15 5 4 3 6 8 10 12 14 15 14 14 14 14
15 15 14 15 15 15 18 16 15 16 16 15 15 14 14 13 10 9 9 8 8 6 6 5 4 4 16 21 21 18 8 7 10 13 14 15 15 15 15 15 14 14
15 15 15 15 16 18 18 18 17 16 16 17 17 16 15 14 11 10 9 8 8 7 6 6 5 13 20 23 23 22 20 11 13 14 15 16 16 15 15 15 15 15
15 15 16 18 18 17 18 18 17 16 16 17 17 17 16 15 11 10 9 9 8 8 7 7 6 15 22 24 24 24 23 17 13 14 14 15 16 15 15 15 15 15
15 18 18 18 18 18 17 17 16 16 16 17 17 17 16 15 14 13 13 10 9 8 8 6 6 14 22 25 26 26 25 22 13 14 14 14 15 15 15 15 15 15
16 17 17 17 18 17 17 17 17 17 17 17 17 17 17 16 15 15 15 14 13 12 8 7 6 16 22 25 27 28 28 28 15 15 15 15 16 16 16 16 15 15
16 18 18 17 17 17 17 17 17 18 18 17 17 16 17 16 16 15 15 15 14 13 10 8 6 18 22 25 27 28 28 25 17 17 16 16 15 16 16 16 15 15
16 16 17 17 17 17 18 18 18 18 17 17 16 16 15 14 15 14 14 14 14 11 9 7 8 15 22 25 27 28 28 20 17 16 16 15 15 15 16 15 15 15
15 18 17 17 17 18 18 19 18 18 17 17 16 15 15 14 14 13 13 12 12 10 9 9 9 13 21 24 27 28 27 19 17 16 15 14 14 14 14 14 15 18
17 18 19 18 18 19 19 19 19 18 18 17 16 15 15 14 12 12 10 9 9 9 13 10 9 12 19 24 26 27 27 18 16 15 15 14 13 12 12 13 13 16
19 20 20 20 20 20 20 19 19 17 17 17 16 15 14 13 12 11 11 10 9 8 8 11 9 8 11 22 25 26 28 19 15 15 14 14 13 12 10 10 12 11